Time,TemperatureF,DewpointF,PressureIn,WindDirection,WindDirectionDegrees,WindSpeedMPH,WindSpeedGustMPH,Humidity,HourlyPrecipIn,Conditions,Clouds,dailyrainin,SoftwareType,DateUTC
2013-07-19 00:02:00,65.0,61.0,30.21,East,94,0.0,0.0,86,0.00,,,0.06,,2013-07-19 05:02:00,
2013-07-19 00:11:00,65.0,61.0,30.21,East,94,0.0,0.0,86,0.00,,,0.06,,2013-07-19 05:11:00,
2013-07-19 00:22:00,65.0,60.0,30.21,East,96,1.0,7.0,84,0.00,,,0.06,,2013-07-19 05:22:00,
2013-07-19 00:32:00,65.0,60.0,30.21,East,96,1.0,7.0,84,0.00,,,0.06,,2013-07-19 05:32:00,
2013-07-19 00:43:00,65.0,60.0,30.21,East,96,1.0,7.0,84,0.00,,,0.06,,2013-07-19 05:43:00,
2013-07-19 00:53:00,65.0,60.0,30.22,NE,42,0.0,1.0,84,0.00,,,0.06,,2013-07-19 05:53:00,
2013-07-19 01:01:00,65.0,60.0,30.22,NE,42,0.0,1.0,84,0.00,,,0.06,,2013-07-19 06:01:00,
2013-07-19 01:11:00,65.0,60.0,30.22,NE,42,0.0,1.0,84,0.00,,,0.06,,2013-07-19 06:11:00,
2013-07-19 01:22:00,65.0,60.0,30.22,East,81,0.0,3.0,84,0.00,,,0.06,,2013-07-19 06:22:00,
2013-07-19 01:32:00,65.0,60.0,30.22,East,81,0.0,3.0,84,0.00,,,0.06,,2013-07-19 06:32:00,
2013-07-19 01:43:00,65.0,60.0,30.22,East,81,0.0,3.0,84,0.00,,,0.06,,2013-07-19 06:43:00,
2013-07-19 01:53:00,64.0,59.0,30.22,East,87,1.0,4.0,84,0.00,,,0.06,,2013-07-19 06:53:00,
2013-07-19 02:01:00,64.0,59.0,30.22,East,87,1.0,4.0,84,0.00,,,0.06,,2013-07-19 07:01:00,
2013-07-19 02:12:00,64.0,59.0,30.22,East,87,1.0,4.0,84,0.00,,,0.06,,2013-07-19 07:12:00,
2013-07-19 02:22:00,64.0,60.0,30.22,East,82,0.0,4.0,86,0.00,,,0.06,,2013-07-19 07:22:00,
2013-07-19 02:32:00,64.0,60.0,30.22,East,82,0.0,4.0,86,0.00,,,0.06,,2013-07-19 07:32:00,
2013-07-19 02:43:00,64.0,60.0,30.22,East,82,0.0,4.0,86,0.00,,,0.06,,2013-07-19 07:43:00,
2013-07-19 02:53:00,63.0,59.0,30.23,ESE,105,0.0,0.0,87,0.00,,,0.06,,2013-07-19 07:53:00,
2013-07-19 03:01:00,63.0,59.0,30.23,ESE,105,0.0,0.0,87,0.00,,,0.06,,2013-07-19 08:01:00,
2013-07-19 03:11:00,63.0,59.0,30.23,ESE,105,0.0,0.0,87,0.00,,,0.06,,2013-07-19 08:11:00,
2013-07-19 03:22:00,64.0,60.0,30.22,ENE,64,1.0,4.0,87,0.00,,,0.06,,2013-07-19 08:22:00,
2013-07-19 03:32:00,64.0,60.0,30.22,ENE,64,1.0,4.0,87,0.00,,,0.06,,2013-07-19 08:32:00,
2013-07-19 03:43:00,64.0,60.0,30.22,ENE,64,1.0,4.0,87,0.00,,,0.06,,2013-07-19 08:43:00,
2013-07-19 03:52:00,64.0,60.0,30.21,East,82,1.0,2.0,86,0.00,,,0.06,,2013-07-19 08:52:00,
2013-07-19 04:02:00,64.0,60.0,30.21,East,82,1.0,2.0,86,0.00,,,0.06,,2013-07-19 09:02:00,
2013-07-19 04:11:00,64.0,60.0,30.21,East,82,1.0,2.0,86,0.00,,,0.06,,2013-07-19 09:11:00,
2013-07-19 04:22:00,64.0,60.0,30.20,East,88,0.0,3.0,86,0.00,,,0.06,,2013-07-19 09:22:00,
2013-07-19 04:32:00,64.0,60.0,30.20,East,88,0.0,3.0,86,0.00,,,0.06,,2013-07-19 09:32:00,
2013-07-19 04:43:00,64.0,60.0,30.20,East,88,0.0,3.0,86,0.00,,,0.06,,2013-07-19 09:43:00,
2013-07-19 04:52:00,64.0,60.0,30.20,ENE,69,0.0,2.0,88,0.00,,,0.06,,2013-07-19 09:52:00,
2013-07-19 05:01:00,64.0,60.0,30.20,ENE,69,0.0,2.0,88,0.00,,,0.06,,2013-07-19 10:01:00,
2013-07-19 05:11:00,64.0,60.0,30.20,ENE,69,0.0,2.0,88,0.00,,,0.06,,2013-07-19 10:11:00,
2013-07-19 05:22:00,64.0,60.0,30.19,East,79,0.0,1.0,88,0.00,,,0.06,,2013-07-19 10:22:00,
2013-07-19 05:32:00,64.0,60.0,30.19,East,79,0.0,1.0,88,0.00,,,0.06,,2013-07-19 10:32:00,
2013-07-19 05:43:00,64.0,60.0,30.19,East,79,0.0,1.0,88,0.00,,,0.06,,2013-07-19 10:43:00,
2013-07-19 05:52:00,64.0,61.0,30.19,NE,56,0.0,1.0,89,0.00,,,0.06,,2013-07-19 10:52:00,
2013-07-19 06:02:00,64.0,61.0,30.19,NE,56,0.0,1.0,89,0.00,,,0.06,,2013-07-19 11:02:00,
2013-07-19 06:12:00,64.0,61.0,30.19,NE,56,0.0,1.0,89,0.00,,,0.06,,2013-07-19 11:12:00,
2013-07-19 06:22:00,64.0,61.0,30.19,ENE,63,1.0,3.0,89,0.00,,,0.06,,2013-07-19 11:22:00,
2013-07-19 06:33:00,64.0,61.0,30.19,ENE,63,1.0,3.0,89,0.00,,,0.06,,2013-07-19 11:33:00,
2013-07-19 06:43:00,64.0,61.0,30.19,ENE,63,1.0,3.0,89,0.00,,,0.06,,2013-07-19 11:43:00,
2013-07-19 06:52:00,64.0,61.0,30.19,NE,53,0.0,3.0,89,0.00,,,0.06,,2013-07-19 11:52:00,
2013-07-19 07:01:00,64.0,61.0,30.19,NE,53,0.0,3.0,89,0.00,,,0.06,,2013-07-19 12:01:00,
2013-07-19 07:12:00,64.0,61.0,30.19,NE,53,0.0,3.0,89,0.00,,,0.06,,2013-07-19 12:12:00,
2013-07-19 07:22:00,64.0,60.0,30.19,East,79,2.0,5.0,88,0.00,,,0.06,,2013-07-19 12:22:00,
2013-07-19 07:33:00,64.0,60.0,30.19,East,79,2.0,5.0,88,0.00,,,0.06,,2013-07-19 12:33:00,
2013-07-19 07:44:00,64.0,60.0,30.19,East,79,2.0,5.0,88,0.00,,,0.06,,2013-07-19 12:44:00,
2013-07-19 07:52:00,64.0,60.0,30.19,East,90,1.0,2.0,88,0.00,,,0.06,,2013-07-19 12:52:00,
2013-07-19 08:02:00,64.0,60.0,30.19,East,90,1.0,2.0,88,0.00,,,0.06,,2013-07-19 13:02:00,
2013-07-19 08:12:00,64.0,60.0,30.19,East,90,1.0,2.0,88,0.00,,,0.06,,2013-07-19 13:12:00,
2013-07-19 08:22:00,65.0,61.0,30.19,East,87,1.0,3.0,87,0.00,,,0.06,,2013-07-19 13:22:00,
2013-07-19 08:32:00,65.0,61.0,30.19,East,87,1.0,3.0,87,0.00,,,0.06,,2013-07-19 13:32:00,
2013-07-19 08:43:00,65.0,61.0,30.19,East,87,1.0,3.0,87,0.00,,,0.06,,2013-07-19 13:43:00,
2013-07-19 08:53:00,66.0,61.0,30.20,SE,133,2.0,5.0,84,0.00,,,0.05,,2013-07-19 13:53:00,
2013-07-19 09:02:00,66.0,61.0,30.20,SE,133,2.0,5.0,84,0.00,,,0.05,,2013-07-19 14:02:00,
2013-07-19 09:11:00,66.0,61.0,30.20,SE,133,2.0,5.0,84,0.00,,,0.05,,2013-07-19 14:11:00,
2013-07-19 09:22:00,67.0,61.0,30.20,ESE,111,5.0,10.0,82,0.00,,,0.05,,2013-07-19 14:22:00,
2013-07-19 09:33:00,67.0,61.0,30.20,ESE,111,5.0,10.0,82,0.00,,,0.05,,2013-07-19 14:33:00,
2013-07-19 09:43:00,67.0,61.0,30.20,ESE,111,5.0,10.0,82,0.00,,,0.05,,2013-07-19 14:43:00,
2013-07-19 09:53:00,69.0,61.0,30.24,ESE,107,4.0,11.0,76,0.00,,,0.01,,2013-07-19 14:53:00,
2013-07-19 10:02:00,69.0,61.0,30.24,ESE,107,4.0,11.0,76,0.00,,,0.01,,2013-07-19 15:02:00,
2013-07-19 10:11:00,69.0,61.0,30.24,ESE,107,4.0,11.0,76,0.00,,,0.01,,2013-07-19 15:11:00,
2013-07-19 10:22:00,68.0,61.0,30.24,SE,127,5.0,7.0,77,0.00,,,0.01,,2013-07-19 15:22:00,
2013-07-19 10:32:00,68.0,61.0,30.24,SE,127,5.0,7.0,77,0.00,,,0.01,,2013-07-19 15:32:00,
2013-07-19 10:43:00,68.0,61.0,30.24,SE,127,5.0,7.0,77,0.00,,,0.01,,2013-07-19 15:43:00,
2013-07-19 10:52:00,69.0,61.0,30.24,ESE,112,3.0,6.0,76,0.00,,,0.01,,2013-07-19 15:52:00,
2013-07-19 11:01:00,69.0,61.0,30.24,ESE,112,3.0,6.0,76,0.00,,,0.01,,2013-07-19 16:01:00,
2013-07-19 11:11:00,69.0,61.0,30.24,ESE,112,3.0,6.0,76,0.00,,,0.01,,2013-07-19 16:11:00,
2013-07-19 11:22:00,69.0,61.0,30.24,SSE,153,3.0,10.0,75,0.00,,,0.01,,2013-07-19 16:22:00,
2013-07-19 11:32:00,69.0,61.0,30.24,SSE,153,3.0,10.0,75,0.00,,,0.01,,2013-07-19 16:32:00,
2013-07-19 11:43:00,69.0,61.0,30.24,SSE,153,3.0,10.0,75,0.00,,,0.01,,2013-07-19 16:43:00,
2013-07-19 11:53:00,70.0,61.0,30.23,ESE,104,4.0,10.0,73,0.00,,,0.01,,2013-07-19 16:53:00,
2013-07-19 12:02:00,70.0,61.0,30.23,ESE,104,4.0,10.0,73,0.00,,,0.01,,2013-07-19 17:02:00,
2013-07-19 12:12:00,70.0,61.0,30.23,ESE,104,4.0,10.0,73,0.00,,,0.01,,2013-07-19 17:12:00,
2013-07-19 12:22:00,70.0,62.0,30.23,ESE,110,1.0,4.0,75,0.00,,,0.01,,2013-07-19 17:22:00,
2013-07-19 12:30:00,72.0,62.0,30.23,SE,145,3.0,7.0,71,0.00,,,0.01,,2013-07-19 17:30:00,
2013-07-19 12:32:00,70.0,62.0,30.23,ESE,110,1.0,4.0,75,0.00,,,0.01,,2013-07-19 17:32:00,
2013-07-19 12:43:00,70.0,62.0,30.23,ESE,110,1.0,4.0,75,0.00,,,0.01,,2013-07-19 17:43:00,
2013-07-19 12:52:00,72.0,62.0,30.23,SE,145,3.0,7.0,71,0.00,,,0.01,,2013-07-19 17:52:00,
2013-07-19 13:01:00,72.0,62.0,30.23,SE,145,3.0,7.0,71,0.00,,,0.01,,2013-07-19 18:01:00,
2013-07-19 13:11:00,72.0,62.0,30.23,SE,145,3.0,7.0,71,0.00,,,0.01,,2013-07-19 18:11:00,
2013-07-19 13:21:00,72.0,62.0,30.23,SE,145,3.0,7.0,71,0.00,,,0.01,,2013-07-19 18:21:00,
2013-07-19 13:52:00,73.0,61.0,30.21,SSE,155,3.0,10.0,66,0.00,,,0.01,,2013-07-19 18:52:00,
2013-07-19 14:01:00,73.0,61.0,30.21,SSE,155,3.0,10.0,66,0.00,,,0.01,,2013-07-19 19:01:00,
2013-07-19 14:11:00,73.0,61.0,30.21,SSE,155,3.0,10.0,66,0.00,,,0.01,,2013-07-19 19:11:00,
2013-07-19 14:21:00,75.0,62.0,30.19,SE,130,1.0,7.0,64,0.00,,,0.01,,2013-07-19 19:21:00,
2013-07-19 14:32:00,75.0,62.0,30.19,SE,130,1.0,7.0,64,0.00,,,0.01,,2013-07-19 19:32:00,
2013-07-19 14:43:00,75.0,62.0,30.19,SE,130,1.0,7.0,64,0.00,,,0.01,,2013-07-19 19:43:00,
2013-07-19 14:52:00,76.0,62.0,30.17,South,179,4.0,7.0,63,0.00,,,0.01,,2013-07-19 19:52:00,
2013-07-19 15:01:00,76.0,62.0,30.17,South,179,4.0,7.0,63,0.00,,,0.01,,2013-07-19 20:01:00,
2013-07-19 15:11:00,76.0,62.0,30.17,South,179,4.0,7.0,63,0.00,,,0.01,,2013-07-19 20:11:00,
2013-07-19 15:22:00,78.0,61.0,30.16,NE,44,2.0,9.0,56,0.00,,,0.01,,2013-07-19 20:22:00,
2013-07-19 15:33:00,78.0,61.0,30.16,NE,44,2.0,9.0,56,0.00,,,0.01,,2013-07-19 20:33:00,
2013-07-19 15:43:00,78.0,61.0,30.16,NE,44,2.0,9.0,56,0.00,,,0.01,,2013-07-19 20:43:00,
2013-07-19 15:52:00,78.0,62.0,30.15,North,355,5.0,10.0,58,0.00,,,0.01,,2013-07-19 20:52:00,
2013-07-19 16:01:00,78.0,62.0,30.15,North,355,5.0,10.0,58,0.00,,,0.01,,2013-07-19 21:01:00,
2013-07-19 16:11:00,78.0,62.0,30.15,North,355,5.0,10.0,58,0.00,,,0.01,,2013-07-19 21:11:00,
2013-07-19 16:22:00,78.0,62.0,30.14,NW,318,1.0,10.0,58,0.00,,,0.01,,2013-07-19 21:22:00,
2013-07-19 16:32:00,78.0,62.0,30.14,NW,318,1.0,10.0,58,0.00,,,0.01,,2013-07-19 21:32:00,
2013-07-19 16:43:00,78.0,62.0,30.14,NW,318,1.0,10.0,58,0.00,,,0.01,,2013-07-19 21:43:00,
2013-07-19 16:52:00,75.0,62.0,30.14,East,97,4.0,10.0,63,0.00,,,0.01,,2013-07-19 21:52:00,
2013-07-19 17:01:00,75.0,62.0,30.14,East,97,4.0,10.0,63,0.00,,,0.01,,2013-07-19 22:01:00,
2013-07-19 17:11:00,75.0,62.0,30.14,East,97,4.0,10.0,63,0.00,,,0.01,,2013-07-19 22:11:00,
2013-07-19 17:21:00,74.0,61.0,30.14,East,88,3.0,5.0,63,0.00,,,0.00,,2013-07-19 22:21:00,
2013-07-19 17:32:00,74.0,61.0,30.14,East,88,3.0,5.0,63,0.00,,,0.00,,2013-07-19 22:32:00,
2013-07-19 17:43:00,74.0,61.0,30.14,East,88,3.0,5.0,63,0.00,,,0.00,,2013-07-19 22:43:00,
2013-07-19 17:52:00,73.0,61.0,30.13,ESE,111,3.0,5.0,67,0.00,,,0.00,,2013-07-19 22:52:00,
2013-07-19 18:01:00,73.0,61.0,30.13,ESE,111,3.0,5.0,67,0.00,,,0.00,,2013-07-19 23:01:00,
2013-07-19 18:11:00,73.0,61.0,30.13,ESE,111,3.0,5.0,67,0.00,,,0.00,,2013-07-19 23:11:00,
2013-07-19 18:21:00,73.0,63.0,30.12,ESE,117,2.0,7.0,70,0.00,,,0.00,,2013-07-19 23:21:00,
2013-07-19 18:32:00,73.0,63.0,30.12,ESE,117,2.0,7.0,70,0.00,,,0.00,,2013-07-19 23:32:00,
2013-07-19 18:43:00,73.0,63.0,30.12,ESE,117,2.0,7.0,70,0.00,,,0.00,,2013-07-19 23:43:00,
2013-07-19 18:52:00,72.0,62.0,30.12,East,99,4.0,7.0,70,0.00,,,0.00,,2013-07-19 23:52:00,
2013-07-19 19:01:00,72.0,62.0,30.12,East,99,4.0,7.0,70,0.00,,,0.00,,2013-07-20 00:01:00,
2013-07-19 19:11:00,72.0,62.0,30.12,East,99,4.0,7.0,70,0.00,,,0.00,,2013-07-20 00:11:00,
2013-07-19 19:22:00,71.0,62.0,30.12,East,97,0.0,6.0,73,0.00,,,0.00,,2013-07-20 00:22:00,
2013-07-19 19:32:00,71.0,62.0,30.12,East,97,0.0,6.0,73,0.00,,,0.00,,2013-07-20 00:32:00,
2013-07-19 19:43:00,71.0,62.0,30.12,East,97,0.0,6.0,73,0.00,,,0.00,,2013-07-20 00:43:00,
2013-07-19 19:52:00,71.0,62.0,30.12,ENE,57,1.0,3.0,74,0.00,,,0.00,,2013-07-20 00:52:00,
2013-07-19 20:01:00,71.0,62.0,30.12,ENE,57,1.0,3.0,74,0.00,,,0.00,,2013-07-20 01:01:00,
2013-07-19 20:11:00,71.0,62.0,30.12,ENE,57,1.0,3.0,74,0.00,,,0.00,,2013-07-20 01:11:00,
2013-07-19 20:22:00,70.0,62.0,30.12,ENE,77,0.0,2.0,75,0.00,,,0.00,,2013-07-20 01:22:00,
2013-07-19 20:32:00,70.0,62.0,30.12,ENE,77,0.0,2.0,75,0.00,,,0.00,,2013-07-20 01:32:00,
2013-07-19 20:52:00,70.0,62.0,30.11,ENE,77,0.0,1.0,76,0.00,,,0.00,,2013-07-20 01:52:00,
2013-07-19 21:01:00,70.0,62.0,30.11,ENE,77,0.0,1.0,76,0.00,,,0.00,,2013-07-20 02:01:00,
2013-07-19 21:11:00,70.0,62.0,30.11,ENE,77,0.0,1.0,76,0.00,,,0.00,,2013-07-20 02:11:00,
2013-07-19 21:22:00,70.0,62.0,30.11,ESE,108,2.0,3.0,75,0.00,,,0.00,,2013-07-20 02:22:00,
2013-07-19 21:32:00,70.0,62.0,30.11,ESE,108,2.0,3.0,75,0.00,,,0.00,,2013-07-20 02:32:00,
2013-07-19 21:44:00,70.0,62.0,30.11,ESE,108,2.0,3.0,75,0.00,,,0.00,,2013-07-20 02:44:00,
2013-07-19 21:52:00,69.0,61.0,30.14,East,94,0.0,4.0,76,0.00,,,0.00,,2013-07-20 02:52:00,
2013-07-19 22:02:00,69.0,61.0,30.14,East,94,0.0,4.0,76,0.00,,,0.00,,2013-07-20 03:02:00,
2013-07-19 22:11:00,69.0,61.0,30.14,East,94,0.0,4.0,76,0.00,,,0.00,,2013-07-20 03:11:00,
2013-07-19 22:22:00,69.0,61.0,30.16,ESE,109,0.0,0.0,77,0.00,,,0.00,,2013-07-20 03:22:00,
2013-07-19 22:32:00,69.0,61.0,30.16,ESE,109,0.0,0.0,77,0.00,,,0.00,,2013-07-20 03:32:00,
2013-07-19 22:44:00,69.0,61.0,30.16,ESE,109,0.0,0.0,77,0.00,,,0.00,,2013-07-20 03:44:00,
2013-07-19 22:53:00,69.0,61.0,30.17,NE,51,0.0,2.0,76,0.00,,,0.00,,2013-07-20 03:53:00,
2013-07-19 23:02:00,69.0,61.0,30.17,NE,51,0.0,2.0,76,0.00,,,0.00,,2013-07-20 04:02:00,
2013-07-19 23:12:00,69.0,61.0,30.17,NE,51,0.0,2.0,76,0.00,,,0.00,,2013-07-20 04:12:00,
2013-07-19 23:22:00,68.0,61.0,30.18,ENE,67,0.0,2.0,78,0.00,,,0.00,,2013-07-20 04:22:00,
2013-07-19 23:33:00,68.0,61.0,30.18,ENE,67,0.0,2.0,78,0.00,,,0.00,,2013-07-20 04:33:00,
2013-07-19 23:44:00,68.0,61.0,30.18,ENE,67,0.0,2.0,78,0.00,,,0.00,,2013-07-20 04:44:00,
2013-07-19 23:52:00,68.0,61.0,30.18,ENE,76,0.0,2.0,79,0.00,,,0.00,,2013-07-20 04:52:00,